GW5385 Weather Reports


time (UTC)temp
C
wind
direction
speed
KPH
gust
KPH
rain 1hr
cm
rain 24hr
cm
rain mn
cm
humidity
%
barometer
mb
20260503231526 22 335 14.5 33.8 0.00 0.00 0.00 20 1010.4
20260503230024 23 323 11.3 19.3 0.00 0.00 0.00 20 1010.5
20260503224526 23 331 8.0 20.9 0.00 0.00 0.00 21 1010.6
20260503223021 23 330 6.4 20.9 0.00 0.00 0.00 21 1010.6
20260503221518 23 304 11.3 22.5 0.00 0.00 0.00 21 1010.9
20260503220021 23 314 11.3 22.5 0.00 0.00 0.00 21 1011.1
20260503214523 23 303 11.3 22.5 0.00 0.00 0.00 21 1011.2
20260503213014 22 347 6.4 19.3 0.00 0.00 0.00 22 1011.3
20260503211511 22 302 6.4 20.9 0.00 0.00 0.00 21 1011.7
20260503210020 22 25 6.4 20.9 0.00 0.00 0.00 22 1011.9
20260503204509 22 294 8.0 20.9 0.00 0.00 0.00 23 1012.0
20260503203004 22 314 9.7 17.7 0.00 0.00 0.00 23 1012.0
20260503201501 22 44 11.3 24.1 0.00 0.00 0.00 22 1012.4
20260503200033 22 319 16.1 25.7 0.00 0.00 0.00 22 1012.7
20260503194527 21 256 4.8 17.7 0.00 0.00 0.00 22 1012.8
20260503193021 21 353 8.0 30.6 0.00 0.00 0.00 24 1013.1
20260503191520 21 340 11.3 27.4 0.00 0.00 0.00 23 1013.3
20260503190018 21 309 12.9 20.9 0.00 0.00 0.00 23 1013.4
20260503184524 20 330 6.4 17.7 0.00 0.00 0.00 24 1013.5
20260503183014 21 327 11.3 22.5 0.00 0.00 0.00 22 1013.6
20260503181511 20 290 8.0 16.1 0.00 0.00 0.00 24 1013.9
20260503180010 20 306 4.8 19.3 0.00 0.00 0.00 25 1014.1
20260503174507 20 343 8.0 17.7 0.00 0.00 0.00 24 1014.4
20260503173004 20 335 9.7 27.4 0.00 0.00 0.00 25 1014.5
20260503171502 20 308 4.8 20.9 0.00 0.00 0.00 24 1014.5
20260503081557 2 335 0.0 1.6 0.00 0.00 0.00 78 1017.4
20260503071543 2 298 0.0 0.0 0.00 0.00 0.00 76 1017.6
20260503054531 5 77 0.0 1.6 0.00 0.00 0.00 68 1017.8
20260503053019 6 77 0.0 4.8 0.00 0.00 0.00 67 1017.8
20260503051513 6 303 0.0 1.6 0.00 0.00 0.00 68 1017.8
20260503050011 7 303 0.0 0.0 0.00 0.00 0.00 66 1017.9
20260503044512 8 303 1.6 3.2 0.00 0.00 0.00 61 1018.1
20260503043011 10 238 3.2 6.4 0.00 0.00 0.00 58 1018.1
20260503041506 11 169 0.0 1.6 0.00 0.00 0.00 57 1018.1
20260503040008 11 349 0.0 3.2 0.00 0.00 0.00 56 1018.3
20260503034537 11 341 0.0 3.2 0.00 0.00 0.00 51 1018.2
20260503033034 12 293 0.0 0.0 0.00 0.00 0.00 50 1018.0
20260503031536 12 293 0.0 3.2 0.00 0.00 0.00 49 1017.9
20260503030034 12 289 1.6 1.6 0.00 0.00 0.00 48 1017.7
20260503024531 12 284 0.0 1.6 0.00 0.00 0.00 47 1017.5
20260503023034 13 37 0.0 0.0 0.00 0.00 0.00 44 1017.4
20260503021529 13 40 0.0 0.0 0.00 0.00 0.00 43 1017.4
20260503020029 15 40 0.0 0.0 0.00 0.00 0.00 41 1017.4
20260503014528 16 40 1.6 3.2 0.00 0.00 0.00 39 1017.4
20260503013035 17 13 6.4 11.3 0.00 0.00 0.00 39 1017.4
20260503011529 17 35 4.8 14.5 0.00 0.00 0.00 37 1017.5
20260503010024 17 84 4.8 9.7 0.00 0.00 0.00 38 1017.5
20260503004523 17 360 0.0 0.0 0.00 0.00 0.00 37 1017.8
20260503003023 17 360 1.6 4.8 0.00 0.00 0.00 37 1018.0
20260503001520 17 46 0.0 4.8 0.00 0.00 0.00 38 1018.1
20260503000020 17 11 1.6 9.7 0.00 0.00 0.00 38 1018.2
20260502234519 17 44 4.8 12.9 0.00 0.00 0.00 37 1018.3
20260502233019 18 70 1.6 11.3 0.00 0.00 0.00 35 1018.3